Regional Weather Roundup
Issued by NWS

Home | Current Version | Previous Version | Text Only | Print | Product List | Glossary On
Versions: 1 2 3 4 5 6 7 8 9 10 11 12 13 14 15 16 17 18 19 20 21 22 23 24 25 26 27 28 29 30 31 32 33 34 35 36 37 38 39 40 41 42 43 44 45 46 47 48 49 50
000
ASUS43 KLMK 201510
RWRKY
KENTUCKY REGIONAL WEATHER ROUNDUP
NATIONAL WEATHER SERVICE LOUISVILLE KY
1100 AM EDT SAT SEP 20 2014

NOTE "FAIR" INDICATES FEW OR NO CLOUDS BELOW 12,000 FEET
WITH NO SIGNIFICANT WEATHER AND/OR OBSTRUCTIONS TO VISIBILITY.

KYZ001>023-026-027-061>063-070>075-201600-
WESTERN AND SOUTH CENTRAL KENTUCKY

CITY           SKY/WX    TMP DP  RH WIND       PRES   REMARKS
PADUCAH        SUNNY     80  68  66 SW9       30.08S
HENDERSON      MOSUNNY   77  64  65 SW15      30.08S
OWENSBORO      MOSUNNY   78  67  68 SW16      30.09F
HOPKINSVILLE   SUNNY     78  67  70 S13       30.12S
BOWLING GREEN  PTSUNNY   75  63  66 SW13      30.14S
GLASGOW        PTSUNNY   74  62  66 SW9G16    30.15S
$$

KYZ024-025-028>034-038-045-046-053-201600-
NORTH CENTRAL KENTUCKY

CITY           SKY/WX    TMP DP  RH WIND       PRES   REMARKS
LOUISVILLE/SDF CLOUDY    76  64  66 SW16G22   30.10S
LOUISVILLE/LOU CLOUDY    73  64  73 S12G17    30.12S
FORT KNOX      PTSUNNY   74  64  70 S14       30.11S
$$

KYZ035>037-039>044-047>052-055>060-089>105-201600-
NORTHEAST KENTUCKY

CITY           SKY/WX    TMP DP  RH WIND       PRES   REMARKS
LEXINGTON      MOSUNNY   75  63  66 S13       30.14F
COVINGTON      MOSUNNY   72  64  76 SW9G18    30.10S
FRANKFORT      MOSUNNY   73  63  70 S13       30.12F
$$

KYZ054-064>069-076>088-106>120-201600-
SOUTHEAST KENTUCKY

CITY           SKY/WX    TMP DP  RH WIND       PRES   REMARKS
JACKSON        MOSUNNY   71  60  68 VRB3      30.18S
LONDON         PTSUNNY   72  59  63 S8        30.19S
SOMERSET       MOSUNNY   70  59  68 S3        30.18S
MIDDLESBORO    SUNNY     72  61  66 SE6       30.21S
MONTICELLO     SUNNY     77  61  57 S12       30.18S
$$



USA.gov is the U.S. government's official web portal to all federal, state and local government web resources and services.